Regional Weather Roundup
Issued by NWS Raleigh/Durham, NC

Home | Current Version | Previous Version | Text Only | Print | Product List | Glossary On
Versions: 1 2 3 4 5 6 7 8 9 10 11 12 13 14 15 16 17 18 19 20 21 22 23 24 25 26 27 28 29 30 31 32 33 34 35 36 37 38 39 40 41 42 43 44 45 46 47 48 49 50
792
ASUS42 KRAH 300110
RWRRAH
NORTH CAROLINA WEATHER ROUNDUP
NATIONAL WEATHER SERVICE RALEIGH NC
900 PM EDT WED MAR 29 2017

NOTE: "FAIR" INDICATES FEW OR NO CLOUDS BELOW 12,000 FEET WITH NO
SIGNIFICANT WEATHER AND/OR OBSTRUCTIONS TO VISIBILITY.

NCZ001-053-055-056-065-067-300200-
WESTERN NORTH CAROLINA

CITY           SKY/WX    TMP DP  RH WIND       PRES   REMARKS
ASHEVILLE      MOCLDY    68  48  48 CALM      30.06R
JEFFERSON      CLEAR     60  46  61 CALM      30.12R
MORGANTON      PTCLDY    67  49  52 E3        30.09R
HICKORY        MOCLDY    70  48  45 CALM      30.04R
RUTHERFORDTON  CLEAR     70  49  46 E5        30.04R
MOUNT AIRY     CLEAR     66  53  61 CALM      30.08R
BOONE          CLEAR     57  46  67 CALM      30.12S
$$

NCZ021-022-025-041-071-084-088-300200-
CENTRAL NORTH CAROLINA

CITY           SKY/WX    TMP DP  RH WIND       PRES   REMARKS
CHARLOTTE      PTCLDY    74  48  39 E9        30.04R
GREENSBORO     PTCLDY    66  51  58 SE7       30.06R
WINSTON-SALEM  PTCLDY    66  47  50 SE3       30.07R
RALEIGH-DURHAM PTCLDY    64  51  62 E6        30.08R
FORT BRAGG     CLEAR     64  54  68 E5        30.07R
FAYETTEVILLE   CLEAR     66  55  67 E6        30.07R
BURLINGTON     CLEAR     66  51  58 CALM      30.06R
LAURINBURG     CLEAR     68  55  63 E8        30.06R
$$

NCZ011-015-027-028-043-044-047-080-103-300200-
NORTHEASTERN NORTH CAROLINA

CITY           SKY/WX    TMP DP  RH WIND       PRES   REMARKS
ROCKY MT-WILSO CLEAR     60  55  83 CALM      30.10R
GREENVILLE     CLEAR     59  54  82 E8        30.14R
WASHINGTON     CLEAR     56  50  82 E7        30.13S
ELIZABETH CITY CLEAR     49  45  86 E7        30.16R
MANTEO         CLEAR     48  46  91 E7        30.17R
CAPE HATTERAS  CLEAR     52  47  83 VRB6      30.15R
$$

NCZ078-087-090-091-093-098-101-300200-
SOUTHEASTERN NORTH CAROLINA

CITY           SKY/WX    TMP DP  RH WIND       PRES   REMARKS
LUMBERTON      CLEAR     68  56  65 E7        30.06R
GOLDSBORO      CLEAR     60  57  90 E5        30.09R
KINSTON        CLEAR     63  54  72 E5        30.12R
KENANSVILLE    CLEAR     57  54  88 CALM      30.10R
NEW BERN       CLEAR     55  52  89 E8        30.14R
CHERRY POINT   CLEAR     56  50  80 E7        30.09F
BEAUFORT       CLEAR     56  53  90 NE8       30.13R
JACKSONVILLE   CLEAR     62  54  74 E8        30.10R
WILMINGTON     CLEAR     60  56  86 E7        30.11R
$$





USA.gov is the U.S. government's official web portal to all federal, state and local government web resources and services.